Location: Lynch Observatory
(39.9540°N, 75.1861°W)
Time: 20:22:50
(UTC-04:00)

DOVE 4 - Pass Details

Date: 03 May 2024
Orbit: 582 x 778 km, 97.7° (Epoch: 28 May)

Event Time Altitude Azimuth Distance (km) Brightness Sun altitude
Rises 23:02:25 0° 6° (N) 3,007 ? -27.9°
Reaches altitude 10° 23:04:38 10° 1° (N) 2,121 ? -28.1°
Maximum altitude 23:09:08 51° 286° (WNW) 882 ? -28.5°
Enters shadow 23:09:16 51° 280° (W) 884 ? -28.5°
